Location: Appeville
(49.3218°N, 1.3427°W)
Time: 17:09:18
(UTC+00:00)

SOZ - Pass Details

Date: 08 December 2019
Orbit: 288 x 13337 km, 52.0° (Epoch: 28 January)

Event Time Altitude Azimuth Distance (km) Brightness Sun altitude
Exits shadow 06:55:16 11° 285° (WNW) 1,170 5.9 -8.1°
Maximum altitude 06:57:18 52° 206° (SSW) 366 3.9 -7.8°
Drops below altitude 10° 06:59:29 10° 127° (SE) 1,235 8.3 -7.5°
Sets 07:01:43 0° 122° (ESE) 2,400 10.6 -7.2°
